Weather reports worldwide

Advertisment
Chamonix, France (7469): temperature & dewpoint: 12.01.2018 07:00:00 - 18.01.2018 07:00:00 (CET)Chamonix, France (7469): wind speed & gusts: 12.01.2018 07:00:00 - 18.01.2018 07:00:00 (CET)Chamonix, France (7469): wind direction: 12.01.2018 07:00:00 - 18.01.2018 07:00:00 (CET)Chamonix, France (7469): precipitation: 12.01.2018 07:00:00 - 18.01.2018 07:00:00 (CET)
Date & Time tt [°C] td [°C] ff [km/h] ff [kn] fx [km/h] fx [kn] dd rr [mm]
18.01.2018 07:00:00 - - - - - - - -
18.01.2018 06:00:00 -2,5 -3,2 0 0 5 3 N 0,0
18.01.2018 05:00:00 -2,9 -3,7 0 0 8 4 N 0,0
18.01.2018 04:00:00 -2,8 -3,6 2 1 8 4 N 0,0
18.01.2018 03:00:00 -2,6 -3,6 2 1 5 3 NNE 0,0
18.01.2018 02:00:00 -2,6 -3,7 2 1 4 2 NNW 0,0
18.01.2018 01:00:00 -2,8 -4,1 0 0 8 4 N -
18.01.2018 00:00:00 -2,8 -4,4 0 0 16 9 N 0,0
17.01.2018 23:00:00 -2,6 -4,6 9 5 18 10 WSW 0,2
17.01.2018 22:00:00 -2,1 -5,8 8 4 22 12 W 0,0
17.01.2018 21:00:00 -1,9 -5,7 4 2 15 8 SSW 0,0
17.01.2018 20:00:00 -1,6 -6,7 9 5 26 14 SW 0,0
17.01.2018 19:00:00 -1,3 -6,3 11 6 28 15 SSW -
17.01.2018 18:00:00 -1,6 -6,2 9 5 29 16 SSW 0,0
17.01.2018 17:00:00 -0,8 -7,4 11 6 42 23 S 0,0
17.01.2018 16:00:00 -0,6 -7,9 11 6 48 26 SSW 0,0
17.01.2018 15:00:00 -0,4 -6,8 22 12 44 24 S 0,0
17.01.2018 14:00:00 -0,3 -6,7 16 9 83 45 S 0,0
17.01.2018 13:00:00 -0,2 -6,4 13 7 54 29 SSW -
17.01.2018 12:00:00 -0,6 -6,0 15 8 52 28 SSW 0,2
17.01.2018 11:00:00 -1,0 -5,1 15 8 41 22 S 0,2
17.01.2018 10:00:00 -1,0 -4,7 9 5 41 22 SSW 0,2
17.01.2018 09:00:00 -1,3 -3,8 16 9 57 31 S 1,0
17.01.2018 08:00:00 -1,2 -2,0 15 8 55 30 SSW 1,0
17.01.2018 07:00:00 0,7 -3,4 9 5 41 22 SSW -
17.01.2018 06:00:00 0,9 -2,2 13 7 46 25 S 0,2
17.01.2018 05:00:00 0,3 -0,4 18 10 54 29 S 0,6
17.01.2018 04:00:00 0,6 0,0 15 8 44 24 S 2,0
17.01.2018 03:00:00 1,4 0,5 16 9 46 25 S 2,0
17.01.2018 02:00:00 1,8 0,9 15 8 48 26 S 3,0
17.01.2018 01:00:00 3,2 1,7 15 8 39 21 S -
17.01.2018 00:00:00 3,8 0,7 9 5 35 19 SSW 0,4
16.01.2018 23:00:00 4,0 1,0 11 6 48 26 SSW 0,2
16.01.2018 22:00:00 3,5 2,6 15 8 37 20 S 1,0
16.01.2018 21:00:00 3,2 2,5 8 4 34 18 SSW 2,0
16.01.2018 20:00:00 3,1 2,7 8 4 21 11 SW 0,8
16.01.2018 19:00:00 2,7 2,6 5 3 15 8 WSW -
16.01.2018 18:00:00 1,4 1,1 2 1 9 5 E 0,2
16.01.2018 17:00:00 1,9 1,5 4 2 16 9 SSE 0,4
16.01.2018 16:00:00 2,0 1,7 2 1 11 6 WSW 0,2
16.01.2018 15:00:00 2,2 1,6 2 1 16 9 N 0,0
16.01.2018 14:00:00 3,7 2,1 5 3 29 16 SSW 0,2
16.01.2018 13:00:00 2,7 2,7 5 3 22 12 S -
16.01.2018 12:00:00 1,1 1,0 2 1 11 6 NE 0,4
16.01.2018 11:00:00 0,4 0,3 4 2 8 4 ENE 0,4
16.01.2018 10:00:00 0,3 0,2 0 0 11 6 N 0,2
16.01.2018 09:00:00 0,2 0,1 4 2 8 4 E 0,0
16.01.2018 08:00:00 0,2 0,1 2 1 8 4 ENE 0,0
16.01.2018 07:00:00 0,1 0,0 4 2 5 3 N -
16.01.2018 06:00:00 0,1 0,0 0 0 8 4 N 0,4
16.01.2018 05:00:00 0,1 0,0 2 1 5 3 N 0,0
16.01.2018 04:00:00 0,0 -0,1 0 0 4 2 N 0,4
16.01.2018 03:00:00 0,0 -0,1 0 0 4 2 N 1,0
16.01.2018 02:00:00 0,1 0,0 0 0 4 2 N 1,0
16.01.2018 01:00:00 0,0 -0,3 2 1 5 3 WSW -
16.01.2018 00:00:00 0,1 -0,2 0 0 4 2 N 0,8
15.01.2018 23:00:00 0,1 -0,3 0 0 4 2 N 0,2
15.01.2018 22:00:00 0,4 -0,5 0 0 8 4 N 0,6
15.01.2018 21:00:00 1,7 -0,4 4 2 22 12 S 0,0
15.01.2018 20:00:00 -0,5 -2,6 2 1 9 5 NNE 0,0
15.01.2018 19:00:00 -0,5 -3,0 4 2 8 4 NNE -
15.01.2018 18:00:00 -0,2 -3,1 2 1 5 3 NE 0,0
15.01.2018 17:00:00 1,5 -4,0 0 0 16 9 N 0,0
15.01.2018 16:00:00 3,3 -3,7 0 0 8 4 N 0,0
15.01.2018 15:00:00 3,9 -3,6 0 0 8 4 N 0,0
15.01.2018 14:00:00 3,2 -3,0 0 0 4 2 N 0,0
15.01.2018 13:00:00 0,0 -3,9 2 1 8 4 WSW -
15.01.2018 12:00:00 -4,5 -5,6 0 0 8 4 N 0,0
15.01.2018 11:00:00 -6,1 -7,0 0 0 5 3 N 0,0
15.01.2018 10:00:00 -6,4 -7,3 0 0 5 3 N 0,0
15.01.2018 09:00:00 -6,4 -7,2 0 0 4 2 N 0,0
15.01.2018 08:00:00 -5,7 -6,7 4 2 5 3 NE 0,0
15.01.2018 07:00:00 -5,4 -6,5 0 0 8 4 N -
15.01.2018 06:00:00 -4,5 -5,9 4 2 8 4 NW 0,0
15.01.2018 05:00:00 -4,2 -5,4 2 1 5 3 ESE 0,0
15.01.2018 04:00:00 -4,5 -5,6 4 2 5 3 NE 0,0
15.01.2018 03:00:00 -5,1 -6,1 0 0 4 2 N 0,0
15.01.2018 02:00:00 -5,7 -6,7 0 0 4 2 N 0,0
15.01.2018 01:00:00 -5,7 -6,7 0 0 4 2 N -
15.01.2018 00:00:00 -6,5 -7,2 0 0 4 2 N 0,0
14.01.2018 23:00:00 -6,6 -7,3 0 0 4 2 N 0,0
14.01.2018 22:00:00 -6,1 -7,0 0 0 4 2 N 0,0
14.01.2018 21:00:00 -5,3 -6,4 0 0 4 2 N 0,0
14.01.2018 20:00:00 -4,4 -5,9 0 0 5 3 N 0,0
14.01.2018 19:00:00 -3,7 -5,5 0 0 4 2 N -
14.01.2018 18:00:00 -2,5 -5,3 0 0 4 2 N 0,0
14.01.2018 17:00:00 0,5 -4,7 0 0 8 4 N 0,0
14.01.2018 16:00:00 2,5 -5,4 4 2 9 5 SSW 0,0
14.01.2018 15:00:00 2,5 -6,6 2 1 8 4 WSW 0,0
14.01.2018 14:00:00 2,3 -6,1 4 2 9 5 WSW 0,0
14.01.2018 13:00:00 1,2 -5,1 2 1 4 2 WSW -
14.01.2018 12:00:00 -1,9 -3,0 0 0 4 2 N 0,0
14.01.2018 11:00:00 -3,6 -4,0 0 0 4 2 N 0,0
14.01.2018 10:00:00 -5,7 -6,4 0 0 4 2 N 0,0
14.01.2018 09:00:00 -6,6 -7,4 2 1 5 3 WSW 0,0
14.01.2018 08:00:00 -6,6 -7,3 0 0 4 2 N 0,0
14.01.2018 07:00:00 -6,8 -7,5 0 0 5 3 N -
14.01.2018 06:00:00 -7,1 -7,8 0 0 4 2 N 0,0
14.01.2018 05:00:00 -7,2 -7,9 2 1 5 3 E 0,0
14.01.2018 04:00:00 -7,8 -8,6 0 0 4 2 N 0,0
14.01.2018 03:00:00 -8,1 -8,9 0 0 5 3 N 0,0
14.01.2018 02:00:00 -7,9 -8,7 0 0 4 2 N 0,0
14.01.2018 01:00:00 -7,5 -8,3 0 0 5 3 N -
14.01.2018 00:00:00 -7,0 -7,7 0 0 4 2 N 0,0
13.01.2018 23:00:00 -6,5 -7,2 0 0 4 2 N 0,0
13.01.2018 22:00:00 -5,9 -6,8 0 0 5 3 N 0,0
13.01.2018 21:00:00 -5,2 -6,3 0 0 8 4 N 0,0
13.01.2018 20:00:00 -4,7 -6,1 0 0 4 2 N 0,0
13.01.2018 19:00:00 -3,8 -5,5 0 0 5 3 N -
13.01.2018 18:00:00 -2,7 -5,7 0 0 8 4 N 0,0
13.01.2018 17:00:00 -0,5 -5,1 0 0 11 6 N 0,0
13.01.2018 16:00:00 3,1 -6,1 4 2 11 6 S 0,0
13.01.2018 15:00:00 4,1 -5,7 2 1 11 6 SW 0,0
13.01.2018 14:00:00 3,0 -1,7 0 0 5 3 N 0,0
13.01.2018 13:00:00 -1,4 -1,5 0 0 4 2 N -
13.01.2018 12:00:00 -6,4 -7,2 0 0 4 2 N 0,0
13.01.2018 11:00:00 -7,0 -7,8 0 0 5 3 N 0,0
13.01.2018 10:00:00 -7,4 -8,1 2 1 4 2 NNE 0,0
13.01.2018 09:00:00 -8,1 -9,0 0 0 4 2 N 0,0
13.01.2018 08:00:00 -8,1 -9,0 0 0 4 2 N 0,0
13.01.2018 07:00:00 -8,1 -9,0 0 0 4 2 N -
13.01.2018 06:00:00 -7,8 -8,7 0 0 5 3 N 0,0
13.01.2018 05:00:00 -7,5 -8,4 0 0 4 2 N 0,0
13.01.2018 04:00:00 -7,1 -7,9 2 1 5 3 N 0,0
13.01.2018 03:00:00 -6,7 -7,4 0 0 8 4 N 0,0
13.01.2018 02:00:00 -6,5 -7,3 2 1 5 3 N 0,0
13.01.2018 01:00:00 -6,1 -6,8 0 0 4 2 N -
13.01.2018 00:00:00 -5,7 -6,4 0 0 4 2 N 0,0
12.01.2018 23:00:00 -5,1 -5,8 0 0 5 3 N 0,0
12.01.2018 22:00:00 -4,5 -5,0 2 1 5 3 SSE 0,0
12.01.2018 21:00:00 -4,2 -4,9 0 0 5 3 N 0,0
12.01.2018 20:00:00 -3,6 -4,3 0 0 4 2 N 0,0
12.01.2018 19:00:00 -3,0 -3,8 0 0 5 3 N -
12.01.2018 18:00:00 -2,3 -3,7 0 0 4 2 N 0,0
12.01.2018 17:00:00 0,2 -2,8 0 0 5 3 N 0,0
12.01.2018 16:00:00 3,0 -3,2 0 0 13 7 N 0,0
12.01.2018 15:00:00 4,2 -3,3 5 3 13 7 S 0,0
12.01.2018 14:00:00 2,8 -1,4 2 1 8 4 SSE 0,0
12.01.2018 13:00:00 1,5 0,5 4 2 8 4 SSE -
12.01.2018 12:00:00 -1,4 -1,5 2 1 5 3 N 0,0
12.01.2018 11:00:00 -1,5 -1,6 0 0 8 4 N 0,0
12.01.2018 10:00:00 -1,5 -1,6 0 0 5 3 N 0,0
12.01.2018 09:00:00 -1,4 -1,5 4 2 8 4 S 0,0
12.01.2018 08:00:00 -1,4 -1,5 0 0 4 2 N 0,0
12.01.2018 07:00:00 -1,0 -1,1 0 0 5 3 N -

tt = temperature
td = dewpoint
ff = wind speed
fx = gusts
dd = wind direction
rr = precipitation

Next stations